Tracking 35334 objects as of 13-Sep-2026
HD Live streaming from Space Station
objects crossing your sky now

COSMOS 656


COSMOS 656 is no longer on orbit


NORAD ID: 7313
Int'l Code: 1974-036A
Launch date: May 27, 1974
Source: Commonwealth of Independent States (former USSR) (CIS)
Launch site: TYURATAM MISSILE AND SPACE COMPLEX (TTMTR)
Decay date: 1974-05-29
Your satellite tracking list
Your tracking list is empty




NASA's NSSDC Master Catalog

Two Line Element Set (TLE):
1 07313U 74036  A 74148.98922777  .00030971 +00000-0 +00000-0 0  9999
2 07313 051.6004 356.5565 0134517 074.8893 286.6909 15.96710386000272
Source of the keplerian elements: AFSPC